Regional Weather Roundup
Issued by NWS

Current Version | Previous Version | Text Only | Print | Product List | Glossary On
Versions: 1 2 3 4 5 6 7 8 9 10 11 12 13 14 15 16 17 18 19 20 21 22 23 24 25 26 27 28 29 30 31 32 33 34 35 36 37 38 39 40 41 42 43 44 45 46 47 48 49 50
000
ASUS46 KSTO 011804
RWRCA

NORTHERN AND CENTRAL CA REGIONAL WEATHER ROUNDUP
NATIONAL WEATHER SERVICE SACRAMENTO CA
1000 AM PST WED MAR 01 2017

NOTE: FAIR INDICATES FEW OR NO CLOUDS BELOW 12,000 FEET WITH NO
SIGNIFICANT WEATHER AND/OR OBSTRUCTIONS TO VISIBILITY.

CAZ001-003-011900-
NORTHWEST AREA

CITY           SKY/WX    TMP DP  RH WIND       PRES   REMARKS
CRESCENT CITY  SUNNY     49  39  68 CALM      30.51R
UKIAH          SUNNY     44  37  76 CALM      30.44S
$$

CAZ006-505>513-011900-
BAY AREA

CITY           SKY/WX    TMP DP  RH WIND       PRES   REMARKS
SANTA ROSA     SUNNY     51  42  71 W3        30.41F
SAN RAFAEL     N/A       41  MM  MM MISG
NAPA           SUNNY     51  41  68 VRB3      30.43F
CONCORD        SUNNY     54  40  59 SE3       30.43S
OAKLAND CITY   N/A      MM  MM  MM MISG
OAKLAND        SUNNY     51  46  83 S6        30.43S
SAN FRAN CITY  N/A       53  MM  60 MISG
SAN FRAN ARPT  SUNNY     51  43  74 E3        30.43S
LIVERMORE      SUNNY    N/A N/A N/A W3        30.42S
HAYWARD        SUNNY     53  37  54 CALM      30.42S
REDWOOD CITY   N/A       MM  MM  MM MISG
MOFFETT ARPT   SUNNY     51  43  74 CALM      30.44S
SAN JOSE ARPT  SUNNY     51  40  65 CALM      30.43S
$$
CAZ034-037-514>518-011900-
CENTRAL COAST

CITY           SKY/WX    TMP DP  RH WIND       PRES   REMARKS
WATSONVILLE    SUNNY     53  43  68 CALM      30.41F
SALINAS        SUNNY     52  39  61 E7        30.40F
MONTEREY       SUNNY     57  34  41 NE10      30.39S
SAN LUIS OBISP SUNNY     62  36  37 VRB3      30.33F
SANTA MARIA    SUNNY     60  41  49 E3        30.32F
$$
CAZ015-016-011900-
NORTHERN SACRAMENTO VALLEY

CITY           SKY/WX    TMP DP  RH WIND       PRES   REMARKS
REDDING        SUNNY     54  32  43 N12       30.41F
RED BLUFF      SUNNY     53  34  48 N12       30.43S
OROVILLE       SUNNY     50  39  66 VRB3      30.42F
$$
CAZ016>018-011900-
SOUTHERN SACRAMENTO VALLEY

CITY           SKY/WX    TMP DP  RH WIND       PRES   REMARKS
AUBURN         SUNNY     52  30  43 S3        30.38S
BEALE AFB      SUNNY     48  37  65 NW3       30.40S
LINCOLN        FAIR      48  34  57 W3        30.40F
MARYSVILLE     SUNNY     49  35  58 CALM      30.42F
SAC INTL ARPT  SUNNY     49  42  77 NW5       30.42S
MATHER AIRPORT SUNNY     48  37  66 CALM      30.42S
DOWNTOWN SAC   N/A       51  MM  MM MISG
SAC EXEC ARPT  SUNNY     50  39  66 CALM      30.42S
VACAVILLE      SUNNY     56  38  50 N3        30.43S
TRAVIS AFB     SUNNY     52  39  61 N3        30.41S
$$
CAZ019>021-011900-
SAN JOAQUIN VALLEY

CITY           SKY/WX    TMP DP  RH WIND       PRES   REMARKS
STOCKTON       SUNNY     52  43  71 W5        30.42S
MODESTO        SUNNY     53  41  63 NW5       30.42S
MERCED         SUNNY     49  38  65 CALM      30.42S
LEMOORE        SUNNY     52  38  58 N9        30.43S
FRESNO         SUNNY     51  42  71 SE7       30.42S
HANFORD        SUNNY     51  40  65 NW6       30.43S
PORTERVILLE    SUNNY     52  42  69 S6        30.43S
BAKERSFIELD    SUNNY     50  38  63 VRB3      30.42S
$$
CAZ011-012-071-011900-
NORTHERN MOUNTAINS

CITY           SKY/WX    TMP DP  RH WIND       PRES   REMARKS
YREKA          SUNNY     36  29  75 CALM      30.50R
MOUNT SHASTA   SUNNY     41  27  57 NW6       30.43R
ALTURAS        SUNNY     33  21  61 CALM      30.44R
$$
CAZ011-012-071-011900-
SIERRA NEVADA MTNS

CITY           SKY/WX    TMP DP  RH WIND       PRES   REMARKS
BLUE CANYON    SUNNY     45  12  26 VRB5      30.36S
TRUCKEE        SUNNY     16  12  86 CALM      30.43F
TAHOE VLY ARPT SUNNY     32  15  49 CALM      30.39S
MAMMOTH LAKES  FAIR      22   7  52 CALM      30.41S
$$



USA.gov is the U.S. government's official web portal to all federal, state and local government web resources and services.